Monterey, CA

5:06 AM PDT on August 22, 2017 (GMT -0700)
Monterey Peninsula

Weather History for KMRY - April, 2013

Change the Weather History Date:

Tuesday, April 2, 2013

  Actual Average Record
Temperature  
Mean Temperature 52 °F 53 °F  
Max Temperature 58 °F 61 °F 80 °F (2000)
Min Temperature 45 °F 46 °F 40 °F (2015)
Degree Days  
Heating Degree Days 13    
Month to date heating degree days 22  
Since 1 July heating degree days 2672  
Cooling Degree Days 0    
Month to date cooling degree days 0  
Year to date cooling degree days 0  
Moisture  
Dew Point 48 °F    
Average Humidity 89    
Maximum Humidity 100    
Minimum Humidity 77    
Precipitation  
Precipitation 0.01 in - 0.33 in (2003)
Month to date precipitation 0.10  
Year to date precipitation 2.89  
Since 1 July precipitation 11.13  
Sea Level Pressure  
Sea Level Pressure 30.18 in    
Wind  
Wind Speed 5 mph (West)    
Max Wind Speed 14 mph    
Max Gust Speed 24 mph    
Visibility 6 miles    
Events Fog    
T = Trace of Precipitation, MM = Missing Value Source: NWS Daily Summary

Daily Weather History Graph

Daily Weather History Graph

Search for Another Location

Airport or City:

Trip Planner

Search our weather history database for the weather conditions in past years. The results will help you decide how hot, cold, wet, or windy it might be!

Date:

Astronomy

Apr. 02, 2013 Rise Set
Actual Time 6:51 AM PDT 7:30 PM PDT
Civil Twilight 6:25 AM PDT 7:56 PM PDT
Nautical Twilight 5:54 AM PDT 8:27 PM PDT
Astronomical Twilight 5:23 AM PDT 8:59 PM PDT
Moon 1:33 AM PDT (4/2) 11:54 AM PDT (4/2)
Length of Visible Light 13h 31m
Length of Day
12h 39m
Waning Gibbous, 55% of the Moon is Illuminated
Apr 2
Waning Gibbous
Apr 2
Last Quarter
Apr 10
New
Apr 18
First Quarter
Apr 25
Full

Hourly Weather History & Observations

Time (PDT) Temp. Windchill Dew Point Humidity Pressure Visibility Wind Dir Wind Speed Gust Speed Precip Events Conditions
12:54 AM 48.0 °F - 46.0 °F 93% 30.21 in 10.0 mi East 3.5 mph - N/A   Clear
1:54 AM 48.0 °F - 45.0 °F 89% 30.22 in 10.0 mi Calm Calm - N/A   Clear
2:54 AM 46.9 °F - 44.1 °F 90% 30.22 in 10.0 mi ESE 3.5 mph - N/A   Partly Cloudy
3:54 AM 45.0 °F - 43.0 °F 93% 30.22 in 10.0 mi Calm Calm - N/A   Mostly Cloudy
4:18 AM 48.2 °F - 46.4 °F 93% 30.17 in 1.8 mi Calm Calm - N/A   Overcast
4:29 AM 48.2 °F - 48.2 °F 100% 30.17 in 1.0 mi Calm Calm - N/A   Mist
4:47 AM 48.2 °F - 46.4 °F 93% 30.17 in 0.8 mi East 3.5 mph - N/A   Mist
4:54 AM 46.9 °F - 46.0 °F 97% 30.21 in 1.0 mi East 3.5 mph - N/A   Mist
5:07 AM 46.4 °F - 46.4 °F 100% 30.17 in 0.8 mi Calm Calm - N/A   Mist
5:26 AM 48.2 °F - 46.4 °F 93% 30.16 in 0.2 mi ENE 3.5 mph - N/A Fog Fog
5:54 AM 46.9 °F - 46.9 °F 100% 30.20 in 0.2 mi ENE 3.5 mph - N/A Fog Fog
5:58 AM 46.4 °F 45.2 °F 46.4 °F 100% 30.16 in 0.5 mi ENE 3.5 mph - 0.01 in Fog Fog
6:06 AM 46.4 °F - 44.6 °F 93% 30.17 in 2.0 mi Calm Calm - 0.01 in   Mostly Cloudy
6:13 AM 46.4 °F - 44.6 °F 93% 30.17 in 10.0 mi Calm Calm - 0.01 in   Mostly Cloudy
6:20 AM 46.4 °F - 46.4 °F 100% 30.17 in 10.0 mi Calm Calm - 0.01 in   Scattered Clouds
6:24 AM 46.4 °F - 46.4 °F 100% 30.17 in 1.8 mi Calm Calm - 0.01 in   Scattered Clouds
6:28 AM 46.4 °F 45.2 °F 46.4 °F 100% 30.17 in 0.8 mi South 3.5 mph - 0.01 in   Mist
6:54 AM 45.0 °F - 44.1 °F 97% 30.21 in 0.2 mi Calm Calm - 0.01 in Fog Fog
7:04 AM 44.6 °F - 42.8 °F 93% 30.17 in 10.0 mi Calm Calm - N/A   Scattered Clouds
7:54 AM 46.9 °F - 46.0 °F 97% 30.22 in 1.5 mi Calm Calm - N/A   Scattered Clouds
7:56 AM 46.4 °F - 46.4 °F 100% 30.18 in 0.8 mi Calm Calm - N/A   Overcast
8:11 AM 46.4 °F - 46.4 °F 100% 30.19 in 2.0 mi Calm Calm - N/A   Mostly Cloudy
8:16 AM 46.4 °F - 46.4 °F 100% 30.19 in 10.0 mi Calm Calm - N/A   Scattered Clouds
8:46 AM 48.2 °F - 48.2 °F 100% 30.18 in 2.5 mi Calm Calm - N/A   Mostly Cloudy
8:54 AM 50.0 °F - 48.0 °F 93% 30.22 in 2.5 mi Calm Calm - N/A   Mostly Cloudy
9:04 AM 50.0 °F - 48.2 °F 94% 30.18 in 7.0 mi Calm Calm - N/A   Mostly Cloudy
9:19 AM 51.8 °F - 48.2 °F 88% 30.18 in 10.0 mi Calm Calm - N/A   Scattered Clouds
9:54 AM 54.0 °F - 50.0 °F 86% 30.21 in 10.0 mi Calm Calm - N/A   Clear
10:54 AM 57.9 °F - 51.1 °F 78% 30.22 in 10.0 mi Variable 6.9 mph - N/A   Clear
11:54 AM 57.0 °F - 51.1 °F 81% 30.22 in 8.0 mi West 8.1 mph - N/A   Clear
12:54 PM 57.0 °F - 50.0 °F 77% 30.22 in 10.0 mi West 9.2 mph - N/A   Clear
1:54 PM 57.0 °F - 50.0 °F 77% 30.20 in 10.0 mi WNW 9.2 mph - N/A   Clear
2:45 PM 57.2 °F - 50.0 °F 77% 30.15 in 10.0 mi WNW 9.2 mph - N/A   Scattered Clouds
2:54 PM 55.9 °F - 50.0 °F 80% 30.19 in 10.0 mi WNW 11.5 mph 17.3 mph N/A   Mostly Cloudy
3:54 PM 55.9 °F - 50.0 °F 80% 30.18 in 10.0 mi WNW 10.4 mph - N/A   Overcast
4:54 PM 55.9 °F - 50.0 °F 80% 30.17 in 10.0 mi West 8.1 mph - N/A   Overcast
5:05 PM 55.4 °F - 48.2 °F 77% 30.13 in 10.0 mi NNW 12.7 mph 27.6 mph N/A   Mostly Cloudy
5:27 PM 53.6 °F - 48.2 °F 82% 30.13 in 10.0 mi West 8.1 mph - N/A   Mostly Cloudy
5:54 PM 55.0 °F - 50.0 °F 83% 30.16 in 10.0 mi WNW 6.9 mph - N/A   Mostly Cloudy
6:54 PM 52.0 °F - 48.9 °F 89% 30.17 in 10.0 mi WSW 8.1 mph - N/A   Overcast
7:33 PM 51.8 °F - 48.2 °F 88% 30.13 in 9.0 mi SW 4.6 mph - N/A   Overcast
7:54 PM 51.1 °F - 48.9 °F 92% 30.17 in 10.0 mi West 4.6 mph - N/A   Overcast
8:08 PM 51.8 °F - 48.2 °F 88% 30.13 in 10.0 mi West 3.5 mph - N/A   Overcast
8:54 PM 51.1 °F - 48.9 °F 92% 30.19 in 10.0 mi West 4.6 mph - N/A   Overcast
9:07 PM 51.8 °F - 48.2 °F 88% 30.15 in 10.0 mi WSW 5.8 mph - N/A   Overcast
9:31 PM 51.8 °F - 48.2 °F 88% 30.17 in 10.0 mi WSW 8.1 mph - N/A   Overcast
9:54 PM 51.1 °F - 48.9 °F 92% 30.21 in 3.0 mi SW 5.8 mph - N/A   Overcast
10:41 PM 50.0 °F - 48.2 °F 94% 30.17 in 6.0 mi SSW 5.8 mph - N/A   Overcast
10:54 PM 50.0 °F - 48.9 °F 96% 30.20 in 3.0 mi SSW 4.6 mph - N/A   Overcast
11:54 PM 50.0 °F - 48.0 °F 93% 30.17 in 10.0 mi Calm Calm - N/A   Overcast